CW7222 Weather Reports


time (UTC)temp
C
wind
direction
speed
KPH
gust
KPH
rain 1hr
cm
rain 24hr
cm
rain mn
cm
humidity
%
barometer
mb
20260502130338 17 119 3.2 11.3 0.00 0.00 0.00 83 1020.9
20260502123349 18 130 0.0 12.9 0.00 0.00 0.00 83 1020.9
20260502122336 18 118 6.4 16.1 0.00 0.00 0.00 82 1020.9
20260502121344 18 134 0.0 9.7 0.00 0.00 0.00 83 1020.9
20260502120336 18 138 0.0 12.9 0.00 0.00 0.00 83 1020.9
20260502115339 18 99 1.6 12.9 0.00 0.00 0.00 83 1020.9
20260502114350 18 95 0.0 12.9 0.00 0.00 0.00 83 1020.9
20260502113336 18 107 4.8 14.5 0.00 0.00 0.00 83 1020.9
20260502112344 18 139 1.6 12.9 0.00 0.00 0.00 82 1020.9
20260502111336 18 150 3.2 12.9 0.00 0.00 0.00 83 1021.3
20260502110344 18 123 0.0 9.7 0.00 0.00 0.00 82 1021.3
20260502105350 18 119 3.2 14.5 0.00 0.00 0.00 82 1021.4
20260502104339 18 123 4.8 11.3 0.00 0.00 0.00 82 1021.6
20260502103348 18 130 1.6 11.3 0.00 0.00 0.00 83 1021.6
20260502102336 18 136 1.6 11.3 0.00 0.00 0.00 82 1021.6
20260502101348 18 118 0.0 14.5 0.00 0.00 0.00 81 1021.6
20260502100334 18 148 4.8 12.9 0.00 0.00 0.00 81 1021.6
20260502091340 17 114 0.0 0.0 0.00 0.00 0.00 83 1021.7
20260502090348 17 104 0.0 0.0 0.00 0.00 0.00 83 1021.7
20260502071342 17 136 0.0 8.0 0.00 0.00 0.00 79 1021.7
20260502070350 17 134 0.0 0.0 0.00 0.00 0.00 78 1021.7
20260502064350 17 125 0.0 0.0 0.00 0.00 0.00 78 1021.6
20260502063342 17 60 0.0 0.0 0.00 0.00 0.00 78 1021.6
20260502060350 17 51 0.0 0.0 0.00 0.00 0.00 78 1021.5
20260502055336 17 51 0.0 0.0 0.00 0.00 0.00 78 1021.5
20260502054345 17 51 0.0 0.0 0.00 0.00 0.00 78 1021.4
20260502053333 17 51 0.0 0.0 0.00 0.00 0.00 79 1021.4
20260502052340 17 51 0.0 0.0 0.00 0.00 0.00 78 1021.4
20260502045350 16 53 0.0 0.0 0.00 0.00 0.00 79 1021.3
20260502044337 16 53 0.0 0.0 0.00 0.00 0.00 79 1021.3
20260502043332 17 59 0.0 0.0 0.00 0.00 0.00 79 1021.3
20260502042337 17 11 0.0 0.0 0.00 0.00 0.00 79 1021.3
20260502041345 17 11 0.0 0.0 0.00 0.00 0.00 79 1021.3
20260502035342 17 11 0.0 0.0 0.00 0.00 0.00 79 1021.3
20260502034346 17 5 0.0 0.0 0.00 0.00 0.00 80 1021.4
20260502033339 17 5 0.0 0.0 0.00 0.00 0.00 80 1021.4
20260502031338 17 13 0.0 0.0 0.00 0.00 0.00 81 1021.5
20260502030349 17 13 0.0 0.0 0.00 0.00 0.00 81 1021.5
20260502025335 17 65 0.0 0.0 0.00 0.00 0.00 81 1021.6
20260502024348 17 73 0.0 0.0 0.00 0.00 0.00 81 1021.5
20260502023332 17 65 0.0 1.6 0.00 0.00 0.00 81 1021.5
20260502022341 17 60 0.0 6.4 0.00 0.00 0.00 80 1021.5
20260502020339 17 61 3.2 8.0 0.00 0.00 0.00 80 1021.7
20260502015346 17 62 0.0 1.6 0.00 0.00 0.00 81 1021.7
20260502014337 17 56 0.0 3.2 0.00 0.00 0.00 81 1021.7
20260502012350 17 36 0.0 0.0 0.00 0.00 0.00 82 1021.9
20260502011453 17 38 0.0 0.0 0.00 0.00 0.00 83 1022.0
20260502010348 17 38 0.0 0.0 0.00 0.00 0.00 82 1022.0
20260502003332 17 28 0.0 0.0 0.00 0.00 0.00 81 1022.2
20260502002340 17 23 0.0 0.0 0.00 0.00 0.00 80 1022.4
20260502001350 17 17 0.0 0.0 0.00 0.00 0.00 80 1022.6
20260502000339 17 16 0.0 0.0 0.00 0.00 0.00 79 1022.6
20260501235345 17 17 0.0 0.0 0.00 0.00 0.00 79 1022.6
20260501234338 17 18 0.0 0.0 0.00 0.00 0.00 79 1022.6
20260501233346 17 19 0.0 0.0 0.00 0.00 0.00 78 1022.6
20260501232331 17 19 0.0 0.0 0.00 0.00 0.00 78 1022.6
20260501231340 17 19 0.0 0.0 0.00 0.00 0.00 78 1022.7
20260501225339 17 19 0.0 0.0 0.00 0.00 0.00 78 1022.7
20260501224350 17 19 0.0 0.0 0.00 0.00 0.00 78 1022.5
20260501223337 16 19 0.0 0.0 0.00 0.00 0.00 78 1022.5
20260501222345 16 315 0.0 0.0 0.00 0.00 0.00 79 1022.5
20260501221335 16 315 0.0 0.0 0.00 0.00 0.00 78 1022.7
20260501220344 16 315 0.0 0.0 0.00 0.00 0.00 78 1022.7
20260501215350 16 329 0.0 6.4 0.00 0.00 0.00 79 1022.7
20260501214337 16 38 0.0 0.0 0.00 0.00 0.00 79 1022.6
20260501213345 16 70 0.0 0.0 0.00 0.00 0.00 81 1022.6
20260501212336 16 71 0.0 0.0 0.00 0.00 0.00 82 1022.6
20260501211345 16 70 0.0 0.0 0.00 0.00 0.00 83 1022.7
20260501210333 16 70 0.0 6.4 0.00 0.00 0.00 84 1022.7
20260501205341 17 77 0.0 0.0 0.00 0.00 0.00 86 1022.7
20260501204350 17 77 0.0 0.0 0.00 0.00 0.00 86 1022.6
20260501203337 16 77 0.0 0.0 0.00 0.00 0.00 86 1022.6
20260501202346 16 77 0.0 0.0 0.00 0.00 0.00 86 1022.5
20260501201350 17 77 0.0 0.0 0.00 0.00 0.00 86 1022.4
20260501195350 17 78 0.0 6.4 0.00 0.00 0.00 86 1022.3
20260501193347 17 57 3.2 14.5 0.00 0.00 0.00 86 1022.1
20260501192332 17 58 4.8 11.3 0.00 0.00 0.00 86 1021.9
20260501191344 17 67 3.2 16.1 0.00 0.00 0.00 86 1021.6
20260501190335 17 26 4.8 12.9 0.00 0.00 0.00 86 1021.6
20260501185345 17 98 4.8 17.7 0.00 0.00 0.00 85 1021.4
20260501184333 17 82 3.2 11.3 0.00 0.00 0.00 85 1021.3
20260501183341 17 112 4.8 14.5 0.00 0.00 0.00 84 1021.3
20260501182348 17 48 3.2 16.1 0.00 0.00 0.00 84 1021.1
20260501181340 17 141 3.2 19.3 0.00 0.00 0.00 83 1021.0
20260501180349 17 82 3.2 16.1 0.00 0.00 0.00 83 1021.0
20260501173338 17 24 3.2 29.0 0.00 0.00 0.00 82 1020.9
20260501172346 17 67 6.4 24.1 0.00 0.00 0.00 82 1020.9
20260501171338 17 94 11.3 20.9 0.00 0.00 0.00 81 1020.9
20260501170348 17 71 1.6 17.7 0.00 0.00 0.00 81 1020.9
20260501165333 17 41 1.6 20.9 0.00 0.00 0.00 80 1020.7
20260501164341 18 137 3.2 22.5 0.00 0.00 0.00 79 1020.6
20260501163350 18 85 1.6 19.3 0.00 0.00 0.00 78 1020.6
20260501162339 18 59 3.2 24.1 0.00 0.00 0.00 77 1020.5
20260501161351 18 45 4.8 22.5 0.00 0.00 0.00 76 1020.6
20260501160341 18 23 1.6 20.9 0.00 0.00 0.00 76 1020.6
20260501154339 18 94 4.8 22.5 0.00 0.00 0.00 75 1020.6
20260501152336 18 31 4.8 24.1 0.00 0.00 0.00 74 1020.7
20260501151348 18 112 1.6 27.4 0.00 0.00 0.00 74 1020.7
20260501150333 19 32 4.8 14.5 0.00 0.00 0.00 73 1020.7
20260501145342 18 73 1.6 17.7 0.00 0.00 0.00 72 1020.6
20260501144350 19 156 1.6 16.1 0.00 0.00 0.00 72 1020.6
20260501143336 19 86 6.4 16.1 0.00 0.00 0.00 72 1020.6